User: anonymous   Login
Location: *
(46.1833°N, 22.7667°E)
Time: 20:45:39
(UTC+00:00)
Language:

MetOp-B - Orbit

View from above orbital plane
View from above orbital plane
View from above satellite
View from above satellite

Ground track
Ground track

The orbit data is extracted from the following two-line orbital elements,

1 38771U 12049A   19316.50622365  .00000012  00000-0  25388-4 0  9994
2 38771  98.7249  13.7792 0000042  89.4684  28.1710 14.21483208371059
Epoch (UTC): 12 November 2019 12:08:57
Eccentricity: 0.0000042
inclination: 98.7249°
perigee height: 820 km
apogee height: 820 km
right ascension of ascending node: 13.7792°
argument of perigee: 89.4684°
revolutions per day: 14.21483208
mean anomaly at epoch: 28.1710°
orbit number at epoch: 37105

The dashed part of the orbit path shows where the satellite is in the earth's shadow,  

DLR